Regional Weather Roundup
Issued by NWS Charleston, SC

Current Version | Previous Version | Graphics & Text | Print | Product List | Glossary On
Versions: 1 2 3 4 5 6 7 8 9 10 11 12 13 14 15 16 17 18 19 20 21 22 23 24 25 26 27 28 29 30 31 32 33 34 35 36 37 38 39 40 41 42 43 44 45 46 47 48 49 50
000
ASUS42 KCHS 182311
RWRCHS
REGIONAL WEATHER ROUNDUP
NATIONAL WEATHER SERVICE CHARLESTON SC
700 PM EDT SAT APR 18 2015

NOTE: "FAIR" INDICATES FEW OR NO CLOUDS BELOW 12,000 FEET WITH NO
SIGNIFICANT WEATHER AND/OR OBSTRUCTIONS TO VISIBILITY.

NOT ALL STATIONS ARE QUALITY CONTROLLED BY THE NATIONAL
WEATHER SERVICE. USE DATA WITH CAUTION...ESPECIALLY
DEWPOINT OBSERVATIONS.

SCZ027-030-031-034>040-042>050-190000-
...SOUTHEAST SOUTH CAROLINA...

CITY           SKY/WX    TMP DP  RH WIND       PRES   REMARKS
N CHARLESTON   LGT RAIN  72  67  84 SE10      29.94S
WATERFRONT PRK   N/A     70 N/A N/A E9          N/A
MOUNT PLEASANT CLOUDY    70  66  88 CALM      29.95S
PINOPOLIS      NOT AVBL
MONCKS CORNER  CLOUDY    73  68  83 SE3       29.93S
SUMMERVILLE    DRIZZLE   70  70 100 CALM      29.94F
BEAUFORT MCAS  CLOUDY    74  68  81 SE7       29.92S
BEAUFORT ARPT  FAIR      72  68  88 CALM      29.92S
HILTON HEAD IS CLOUDY    72  70  94 SE5       29.94S
WALTERBORO     CLOUDY    72  68  88 SE7       29.93F
ALLENDALE      CLOUDY    73  70  88 N6        29.92R

...SOUTHERN MIDLANDS AND PEE DEE...

CITY           SKY/WX    TMP DP  RH WIND       PRES   REMARKS
GEORGETOWN     NOT AVBL
KINGSTREE      NOT AVBL
ORANGEBURG     CLOUDY    74  66  76 CALM      29.93S
BARNWELL       CLOUDY    73  70  88 NE5       29.93S
AIKEN          CLOUDY    68  64  88 NE3       29.97S
MANNING        HVY RAIN  72  54  53 CALM      29.93S
COLUMBIA       PTSUNNY   73  66  78 SE3       29.92F
SUMTER         LGT RAIN  73  67  83 SE3       29.92S
FLORENCE       CLOUDY    75  66  73 SE7       29.93S
MYRTLE BEACH   MOCLDY    70  63  78 SE8       29.97R
N MYRTLE BEACH MOCLDY    69  64  84 SE7       29.95S

$$

GAZ063-065-086>088-099>101-113>116-118-119-134>141-150-190000-
...SOUTHEAST GEORGIA...

CITY           SKY/WX    TMP DP  RH WIND       PRES   REMARKS
SAVANNAH ARPT  PTSUNNY   75  67  76 E9        29.91S
HUNTER AAF     MOSUNNY   73  69  87 E9        29.90R
FORT STEWART   PTSUNNY   78  70  76 SE8       29.88F
STATESBORO       N/A     78  68  70 N7        29.90S
SYLVANIA       MOCLDY    76  70  81 CALM      29.92R
CLAXTON        FAIR      77  72  83 CALM      29.90F

...CSRA...CENTRAL AND FAR SOUTHEAST GEORGIA...

CITY           SKY/WX    TMP DP  RH WIND       PRES   REMARKS
THOMSON        PTSUNNY   73  71  95 CALM      29.96F
AUGUSTA-BUSH   PTSUNNY   72  66  81 NE5       29.92S
AUGUSTA-DANIEL PTSUNNY   73  66  78 NE5       29.93F
SWAINSBORO     NOT AVBL
VIDALIA        HVY RAIN  79  68  69 CALM      29.91S
EASTMAN        FAIR      78  69  73 CALM      29.93S
HAZLEHURST     FAIR      81  69  67 CALM      29.89F
ALMA           PTSUNNY   80  66  62 NW3       29.90F
WAYCROSS       PTSUNNY   84  71  65 NW3       29.90S HX  90
JESUP          FAIR      86  70  58 NW3       29.90S HX  90
BAXLEY         FAIR      82  68  61 CALM      29.90S
BRUNSWICK      MOSUNNY   75  70  83 E7        29.92S
SAINT SIMONS   MOSUNNY   72  69  90 E8        29.91F

$$

SCZ027-028-034-036>038-045-046-048>050-GAZ119-141-190000-
...LAKE AND SUPPLEMENTAL COASTAL OBSERVATIONS...

STATION/POSITION TIME  TEMP    WIND        PRES    WAVE   SWELL
                       AIR SEA DIR/SP/G            HT/PER HT/PER/DIR
                 (UTC) (F)     (DEG/KT/KT) (MB)    (FT/S) (FT/S/D)
UPR LAKE MARION  NOT AVBL
WINYAH BAY       NOT AVBL
LAKE MURRAY      2200   70     210/  1/  3 1013.2F
ACE BASIN NERRS  NOT AVBL
FORT PULASKI     2200   73 72  110/  5/  8 1013.9R
SAPELO ISLAND    NOT AVBL

$$

ANZ835-935-AMZ111-154-330-350-352-354-370-450-454-472-190000-
...C-MAN AND BUOY OBSERVATIONS...

STATION/POSITION TIME  TEMP    WIND        PRES    WAVE   SWELL
                       AIR SEA DIR/SP/G            HT/PER HT/PER/DIR
                 (UTC) (F)     (DEG/KT/KT) (MB)    (FT/S) (FT/S/D)
BUOY 41004       2250   72 75   70/  6/  8 1013.1S   3/ 9   3/ 9
BUOY 41008       2250   70 69  100/  6/  8 1013.0F   2/ 8   2/100/ 8
FOLLY BEACH CMAN 2300   68      90/  5/  6 1013.9F
CAPERS NEARSHORE NOT AVBL
FRIPP NEARSHORE  2200   71     110/ 10/ 10 1013.2F


STATION/POSITION TIME  TEMP    WIND        PRES    WAVE   SWELL
                       AIR SEA DIR/SP/G            HT/PER HT/PER/DIR
                 (UTC) (F)     (DEG/KT/KT) (MB)    (FT/S) (FT/S/D)
5E ST. MARYS GA  2221      72                N/A     3/ 8
FRYING PAN BUOY  2250   73 74  110/ 12/ 14 1013.9S   4/ 8   3/ 90/ 8
BUOY 41025       2250   72 77   20/  8/ 10 1014.2S   4/ 7   3/110/ 7
CAPE LOOKOUT NC  2300   69      CALM  /  1 1013.7S
BUOY 41002       2250   72 75  170/  4/  6 1013.9S   5/11   5/ 40/11
BUOY 41010       2220   78 80   60/  2/  4 1014.0S
ST AUGUSTINE FL  2300   71 72  150/  9/ 11 1013.9R


$$


USA.gov is the U.S. government's official web portal to all federal, state and local government web resources and services.